Spokane, WA

10:46 PM PST on February 26, 2017 (GMT -0800)
Spokane International

Weather History for KGEG - February, 2013

Change the Weather History Date:

Monday, February 4, 2013

  Actual Average Record
Temperature  
Mean Temperature 34 °F 32 °F  
Max Temperature 39 °F 37 °F 54 °F (1967)
Min Temperature 29 °F 26 °F -22 °F (1883)
Degree Days  
Heating Degree Days 31 33  
Month to date heating degree days 132 134  
Since 1 July heating degree days 3800 4067  
Cooling Degree Days 0 0  
Month to date cooling degree days 0 0  
Year to date cooling degree days 0 0  
Moisture  
Dew Point 31 °F    
Average Humidity 90    
Maximum Humidity 100    
Minimum Humidity 79    
Precipitation  
Precipitation 0.00 in 0.05 in 0.61 in (1897)
Month to date precipitation 0.00 0.18  
Year to date precipitation 1.63 1.97  
Snow  
Snow 0.00 in 0.30 in 5.30 in (1893)
Month to date snowfall 0.0 1.2  
Since 1 July snowfall 38.2 34.7  
Snow Depth 0.00 in    
Sea Level Pressure  
Sea Level Pressure 30.06 in    
Wind  
Wind Speed 5 mph (South)    
Max Wind Speed 14 mph    
Max Gust Speed 20 mph    
Visibility 3 miles    
Events Fog    
T = Trace of Precipitation, MM = Missing Value Source: NWS Daily Summary

Daily Weather History Graph

Daily Weather History Graph

Search for Another Location

Airport or City:

Trip Planner

Search our weather history database for the weather conditions in past years. The results will help you decide how hot, cold, wet, or windy it might be!

Date:

Astronomy

Feb. 04, 2013 Rise Set
Actual Time 7:12 AM PST 4:56 PM PST
Civil Twilight 6:39 AM PST 5:29 PM PST
Nautical Twilight 6:02 AM PST 6:06 PM PST
Astronomical Twilight 5:26 AM PST 6:41 PM PST
Moon 1:58 AM PST (2/4) 11:17 AM PST (2/4)
Length of Visible Light 10h 49m
Length of Day
9h 44m
Last Quarter, 36% of the Moon is Illuminated
Feb 4
Last Quarter
Feb 9
New
Feb 17
First Quarter
Feb 25
Full
Mar 4
Last Quarter

Hourly Weather History & Observations

Time (PST) Temp. Windchill Dew Point Humidity Pressure Visibility Wind Dir Wind Speed Gust Speed Precip Events Conditions
12:53 AM 33.1 °F 30.0 °F 30.9 °F 92% 30.12 in 0.5 mi South 3.5 mph - N/A   Overcast
2:53 AM 33.8 °F 26.4 °F 30.2 °F 87% 30.06 in 2.0 mi SSW 9.2 mph - N/A   Overcast
3:53 AM 32.0 °F 23.6 °F 30.2 °F 93% 30.07 in 2.0 mi SSW 10.4 mph - N/A   Overcast
4:53 AM 32.0 °F 25.6 °F 30.9 °F 96% 30.12 in 2.0 mi SW 6.9 mph - N/A   Overcast
5:26 AM 32.0 °F 24.2 °F 30.2 °F 93% 30.06 in 0.2 mi SSW 9.2 mph - N/A   Overcast
5:53 AM 32.0 °F 24.2 °F 30.9 °F 96% 30.13 in 0.2 mi SSW 9.2 mph - N/A   Overcast
6:53 AM 32.0 °F 26.4 °F 30.9 °F 96% 30.12 in 0.2 mi SSW 5.8 mph - N/A   Overcast
7:53 AM 32.0 °F 28.7 °F 30.9 °F 96% 30.13 in 0.2 mi South 3.5 mph - N/A Fog Fog
8:53 AM 32.0 °F 24.2 °F 30.9 °F 96% 30.12 in 0.2 mi SSE 9.2 mph - N/A   Overcast
9:10 AM 33.8 °F 27.0 °F 32.0 °F 93% 30.08 in 1.0 mi SSW 8.1 mph - N/A   Overcast
9:53 AM 33.1 °F 26.1 °F 32.0 °F 96% 30.15 in 1.0 mi SSW 8.1 mph - N/A   Overcast
10:47 AM 33.8 °F 26.4 °F 32.0 °F 93% 30.09 in 3.0 mi South 9.2 mph - N/A   Mostly Cloudy
10:53 AM 34.0 °F 27.2 °F 32.0 °F 92% 30.14 in 3.0 mi South 8.1 mph - N/A   Overcast
11:27 AM 35.6 °F 27.5 °F 32.0 °F 87% 30.07 in 8.0 mi South 11.5 mph - N/A   Mostly Cloudy
11:53 AM 35.1 °F 26.9 °F 32.0 °F 89% 30.12 in 10.0 mi South 11.5 mph - N/A   Mostly Cloudy
12:53 PM 36.0 °F 29.6 °F 32.0 °F 86% 30.10 in 10.0 mi South 8.1 mph - N/A   Overcast
1:53 PM 37.0 °F 31.0 °F 33.1 °F 86% 30.09 in 10.0 mi SSW 8.1 mph - N/A   Overcast
2:53 PM 37.9 °F 33.5 °F 34.0 °F 86% 30.08 in 10.0 mi South 5.8 mph - N/A   Mostly Cloudy
3:53 PM 39.0 °F 36.8 °F 34.0 °F 82% 30.07 in 10.0 mi South 3.5 mph - N/A   Mostly Cloudy
4:53 PM 37.0 °F - 34.0 °F 89% 30.05 in 10.0 mi Calm Calm - N/A   Mostly Cloudy
5:53 PM 37.0 °F - 34.0 °F 89% 30.05 in 10.0 mi Calm Calm - N/A   Mostly Cloudy
6:53 PM 36.0 °F 33.3 °F 34.0 °F 93% 30.05 in 9.0 mi SSE 3.5 mph - N/A   Mostly Cloudy
7:53 PM 32.0 °F - 30.9 °F 96% 30.06 in 1.2 mi Calm Calm - N/A   Scattered Clouds
8:08 PM 30.2 °F 26.7 °F 30.2 °F 100% 30.00 in 2.5 mi NE 3.5 mph - N/A Fog Scattered Clouds
8:18 PM 30.2 °F - 28.4 °F 93% 30.00 in 0.8 mi Calm Calm - N/A Fog Scattered Clouds
8:41 PM 28.4 °F 24.6 °F 28.4 °F 100% 29.99 in 0.2 mi East 3.5 mph - N/A Fog Light Freezing Fog
8:53 PM 30.0 °F 26.5 °F 28.0 °F 92% 30.05 in 0.5 mi East 3.5 mph - N/A Fog Light Freezing Fog
9:06 PM 30.2 °F - 30.2 °F 100% 29.99 in 2.5 mi Calm Calm - N/A Fog Mostly Cloudy
9:34 PM 32.0 °F 28.7 °F 30.2 °F 93% 29.98 in 1.5 mi East 3.5 mph - N/A Fog Overcast
9:44 PM 30.2 °F - 30.2 °F 100% 29.98 in 0.8 mi Calm Calm - N/A Fog Overcast
9:53 PM 30.9 °F - 30.0 °F 96% 30.04 in 0.2 mi Calm Calm - N/A Fog Light Freezing Fog
10:24 PM 30.2 °F - 30.2 °F 100% 29.97 in 0.8 mi Calm Calm - N/A   Mist
10:38 PM 30.2 °F - 30.2 °F 100% 29.96 in 1.0 mi Calm Calm - N/A   Mist
10:53 PM 32.0 °F 28.7 °F 30.0 °F 92% 30.01 in 1.5 mi NE 3.5 mph - N/A   Mostly Cloudy
11:21 PM 30.2 °F 25.4 °F 30.2 °F 100% 29.95 in 1.2 mi ENE 4.6 mph - N/A   Overcast
11:53 PM 30.9 °F - 30.9 °F 100% 30.01 in 0.8 mi Calm Calm - N/A   Overcast